QPF
0.00 0.00 0.00 0.00 0.00 0.00 0.00 0.00 0.00 0.00 0.00 0.00 0.01 0.02 0.03 0.05 0.07 0.09 0.08 0.08 0.09 0.10 0.11 0.11 0.09 0.06 0.03 0.01 0.00 0.00 0.00 0.00 0.00 0.00 0.00 0.00 0.00 0.00 0.00 0.00 0.00 0.00 0.00 0.00
0.00 0.00 0.00 0.00 0.00 0.00 0.00 0.00 0.00 0.00 0.00 0.00 0.00 0.02 0.03 0.05 0.08 0.09 0.12 0.14 0.15 0.15 0.14 0.11 0.08 0.04 0.01 0.00 0.00 0.00 0.00 0.00 0.00 0.00 0.00 0.00 0.00 0.00 0.00 0.00 0.00 0.00 0.00 0.00
0.00 0.00 0.00 0.00 0.00 0.00 0.00 0.00 0.00 0.00 0.00 0.00 0.00 0.01 0.03 0.04 0.07 0.11 0.15 0.16 0.15 0.13 0.11 0.09 0.06 0.02 0.00 0.00 0.00 0.00 0.00 0.00 0.00 0.00 0.00 0.00 0.00 0.00 0.00 0.00 0.00 0.00 0.00 0.00
0.00 0.00 0.00 0.00 0.00 0.00 0.00 0.00 0.00 0.00 0.00 0.00 0.00 0.02 0.04 0.06 0.09 0.13 0.16 0.15 0.12 0.10 0.09 0.06 0.03 0.01 0.00 0.00 0.00 0.00 0.00 0.00 0.00 0.00 0.00 0.00 0.00 0.00 0.00 0.00 0.00 0.00 0.00 0.00
0.00 0.00 0.00 0.00 0.00 0.00 0.00 0.00 0.00 0.00 0.00 0.00 0.01 0.03 0.04 0.06 0.10 0.14 0.14 0.12 0.10 0.08 0.06 0.04 0.01 0.00 0.00 0.00 0.00 0.00 0.00 0.00 0.00 0.00 0.00 0.00 0.00 0.00 0.00 0.00 0.00 0.00 0.00 0.00
0.00 0.00 0.00 0.00 0.00 0.00 0.00 0.00 0.00 0.00 0.00 0.01 0.02 0.04 0.03 0.04 0.06 0.08 0.08 0.08 0.07 0.06 0.04 0.02 0.01 0.00 0.00 0.00 0.00 0.00 0.00 0.00 0.00 0.00 0.00 0.00 0.00 0.00 0.00 0.00 0.00 0.00 0.00 0.00
0.00 0.00 0.00 0.00 0.00 0.00 0.00 0.00 0.00 0.01 0.02 0.03 0.05 0.07 0.07 0.07 0.07 0.08 0.09 0.09 0.08 0.05 0.02 0.00 0.00 0.00 0.00 0.00 0.00 0.00 0.00 0.00 0.00 0.00 0.00 0.00 0.00 0.00 0.00 0.00 0.00 0.00 0.00 0.00
0.00 0.00 0.00 0.00 0.00 0.00 0.00 0.00 0.01 0.02 0.04 0.07 0.11 0.13 0.12 0.12 0.12 0.12 0.12 0.10 0.06 0.02 0.00 0.00 0.00 0.00 0.00 0.00 0.00 0.00 0.00 0.00 0.00 0.00 0.00 0.00 0.00 0.00 0.00 0.00 0.00 0.00 0.00 0.00
0.00 0.00 0.00 0.00 0.00 0.01 0.01 0.02 0.03 0.06 0.09 0.15 0.21 0.23 0.22 0.20 0.17 0.13 0.09 0.05 0.02 0.00 0.00 0.00 0.00 0.00 0.00 0.00 0.00 0.00 0.00 0.00 0.00 0.00 0.00 0.00 0.00 0.00 0.00 0.00 0.00 0.00 0.00 0.00
0.02 0.01 0.01 0.01 0.02 0.03 0.04 0.05 0.08 0.13 0.15 0.17 0.18 0.16 0.15 0.12 0.09 0.06 0.03 0.01 0.00 0.00 0.00 0.00 0.00 0.00 0.00 0.00 0.00 0.00 0.00 0.00 0.00 0.00 0.00 0.00 0.00 0.00 0.00 0.00 0.00 0.00 0.00 0.00
0.05 0.05 0.05 0.08 0.09 0.09 0.14 0.15 0.17 0.18 0.14 0.13 0.11 0.08 0.05 0.03 0.01 0.01 0.00 0.00 0.00 0.00 0.00 0.00 0.00 0.00 0.00 0.00 0.00 0.00 0.00 0.00 0.00 0.00 0.00 0.00 0.00 0.00 0.00 0.00 0.00 0.01 0.01 0.01
0.12 0.10 0.09 0.13 0.15 0.16 0.18 0.17 0.14 0.10 0.08 0.06 0.04 0.03 0.01 0.01 0.00 0.00 0.00 0.00 0.00 0.00 0.00 0.00 0.00 0.00 0.00 0.00 0.00 0.00 0.00 0.00 0.00 0.00 0.00 0.00 0.00 0.00 0.00 0.00 0.00 0.00 0.01 0.01
0.13 0.12 0.12 0.15 0.17 0.20 0.17 0.11 0.07 0.05 0.02 0.01 0.00 0.00 0.00 0.00 0.00 0.00 0.00 0.00 0.00 0.00 0.00 0.00 0.00 0.00 0.00 0.00 0.00 0.00 0.00 0.00 0.00 0.00 0.00 0.00 0.00 0.00 0.00 0.00 0.00 0.00 0.01 0.01
0.15 0.16 0.15 0.11 0.09 0.09 0.06 0.03 0.01 0.00 0.00 0.00 0.00 0.00 0.00 0.00 0.00 0.00 0.00 0.00 0.00 0.00 0.00 0.00 0.00 0.00 0.00 0.00 0.00 0.00 0.00 0.00 0.00 0.00 0.00 0.00 0.00 0.00 0.00 0.00 0.00 0.00 0.01 0.01
0.12 0.10 0.06 0.03 0.02 0.01 0.01 0.00 0.00 0.00 0.00 0.00 0.00 0.00 0.00 0.00 0.00 0.00 0.00 0.00 0.00 0.00 0.00 0.00 0.00 0.00 0.00 0.00 0.00 0.00 0.00 0.00 0.00 0.00 0.00 0.00 0.00 0.00 0.00 0.00 0.00 0.01 0.01 0.01
0.06 0.03 0.01 0.00 0.00 0.00 0.00 0.00 0.00 0.00 0.00 0.00 0.00 0.00 0.00 0.00 0.00 0.00 0.00 0.00 0.00 0.00 0.00 0.00 0.00 0.00 0.00 0.00 0.00 0.00 0.00 0.00 0.00 0.00 0.00 0.00 0.00 0.00 0.00 0.00 0.00 0.01 0.01 0.01
0.01 0.01 0.00 0.00 0.00 0.00 0.00 0.00 0.00 0.00 0.00 0.00 0.00 0.00 0.00 0.00 0.00 0.00 0.00 0.00 0.00 0.00 0.00 0.00 0.00 0.00 0.00 0.00 0.00 0.00 0.00 0.00 0.00 0.00 0.00 0.00 0.00 0.00 0.00 0.00 0.00 0.01 0.01 0.02
0.01 0.00 0.00 0.00 0.00 0.00 0.00 0.00 0.00 0.00 0.00 0.00 0.00 0.00 0.00 0.00 0.00 0.00 0.00 0.00 0.00 0.00 0.00 0.00 0.00 0.00 0.00 0.00 0.00 0.00 0.00 0.00 0.00 0.00 0.00 0.00 0.00 0.00 0.00 0.00 0.00 0.00 0.01 0.02
0.01 0.00 0.00 0.00 0.00 0.00 0.00 0.00 0.00 0.00 0.00 0.00 0.00 0.00 0.00 0.00 0.00 0.00 0.00 0.00 0.00 0.00 0.00 0.00 0.00 0.00 0.00 0.00 0.00 0.00 0.00 0.00 0.00 0.00 0.00 0.00 0.00 0.00 0.00 0.00 0.00 0.00 0.01 0.01
0.00 0.00 0.00 0.00 0.00 0.00 0.00 0.00 0.00 0.00 0.00 0.00 0.00 0.00 0.00 0.00 0.00 0.00 0.00 0.00 0.00 0.00 0.00 0.00 0.00 0.00 0.00 0.00 0.00 0.00 0.00 0.00 0.00 0.00 0.00 0.00 0.00 0.00 0.00 0.00 0.00 0.00 0.00 0.01
0.00 0.00 0.00 0.00 0.00 0.00 0.00 0.00 0.00 0.00 0.00 0.00 0.00 0.00 0.00 0.00 0.00 0.00 0.00 0.00 0.00 0.00 0.00 0.00 0.00 0.00 0.00 0.00 0.00 0.00 0.00 0.00 0.00 0.00 0.00 0.00 0.00 0.00 0.00 0.00 0.00 0.00 0.00 0.00
0.00 0.00 0.00 0.00 0.00 0.00 0.00 0.00 0.00 0.00 0.00 0.00 0.00 0.00 0.00 0.00 0.00 0.00 0.00 0.00 0.00 0.00 0.00 0.00 0.00 0.00 0.00 0.00 0.00 0.00 0.00 0.00 0.00 0.00 0.00 0.00 0.00 0.00 0.00 0.00 0.00 0.00 0.00 0.00
0.00 0.00 0.00 0.00 0.00 0.00 0.00 0.00 0.00 0.00 0.00 0.00 0.00 0.00 0.00 0.00 0.00 0.00 0.00 0.00 0.00 0.00 0.00 0.00 0.00 0.00 0.00 0.00 0.00 0.00 0.00 0.00 0.00 0.00 0.00 0.00 0.00 0.00 0.00 0.00 0.00 0.00 0.00 0.00
0.00 0.00 0.00 0.00 0.00 0.00 0.00 0.00 0.00 0.00 0.00 0.00 0.00 0.00 0.00 0.00 0.00 0.00 0.00 0.00 0.00 0.00 0.00 0.00 0.00 0.00 0.00 0.00 0.00 0.00 0.00 0.00 0.00 0.00 0.00 0.00 0.00 0.00 0.00 0.00 0.00 0.00 0.00 0.00
0.00 0.00 0.00 0.00 0.00 0.00 0.00 0.00 0.00 0.00 0.00 0.00 0.00 0.00 0.00 0.00 0.00 0.00 0.00 0.00 0.00 0.00 0.00 0.00 0.00 0.00 0.00 0.00 0.00 0.00 0.00 0.00 0.00 0.00 0.00 0.00 0.00 0.00 0.00 0.00 0.00 0.00 0.00 0.00
0.00 0.00 0.00 0.00 0.00 0.00 0.00 0.00 0.00 0.00 0.00 0.00 0.00 0.00 0.00 0.00 0.00 0.00 0.00 0.00 0.00 0.00 0.00 0.00 0.00 0.00 0.00 0.00 0.00 0.00 0.00 0.00 0.00 0.00 0.00 0.00 0.00 0.00 0.00 0.00 0.00 0.00 0.00 0.00
0.00 0.00 0.00 0.00 0.00 0.00 0.00 0.00 0.00 0.00 0.00 0.00 0.00 0.00 0.00 0.00 0.00 0.00 0.00 0.00 0.00 0.00 0.00 0.00 0.00 0.00 0.00 0.00 0.00 0.00 0.00 0.00 0.00 0.00 0.00 0.00 0.00 0.00 0.00 0.00 0.00 0.00 0.00 0.00
MSLP
1012.31 1012.13 1011.98 1011.83 1011.68 1011.48 1011.20 1010.83 1010.37 1009.85 1009.32 1008.86 1008.54 1008.44 1008.61 1009.09 1009.88 1010.93 1012.20 1013.59 1015.02 1016.39 1017.64 1018.71 1019.58 1020.23 1020.68 1020.94 1021.05 1021.03 1020.92 1020.74 1020.51 1020.25 1019.99 1019.72 1019.49 1019.28 1019.13 1019.01 1018.94 1018.90 1018.88 1018.86
1012.96 1012.67 1012.35 1011.99 1011.58 1011.13 1010.64 1010.10 1009.56 1009.04 1008.59 1008.27 1008.14 1008.24 1008.59 1009.22 1010.10 1011.19 1012.43 1013.76 1015.10 1016.38 1017.55 1018.55 1019.38 1020.01 1020.47 1020.74 1020.87 1020.87 1020.77 1020.59 1020.35 1020.08 1019.80 1019.53 1019.28 1019.09 1018.94 1018.84 1018.80 1018.78 1018.78 1018.77
1013.54 1013.17 1012.71 1012.18 1011.58 1010.94 1010.28 1009.65 1009.07 1008.58 1008.24 1008.07 1008.12 1008.40 1008.92 1009.66 1010.60 1011.69 1012.89 1014.12 1015.34 1016.50 1017.54 1018.45 1019.21 1019.80 1020.24 1020.52 1020.66 1020.69 1020.61 1020.45 1020.23 1019.97 1019.70 1019.43 1019.20 1019.02 1018.89 1018.80 1018.77 1018.76 1018.76 1018.75
1014.02 1013.58 1013.02 1012.36 1011.64 1010.89 1010.15 1009.48 1008.92 1008.51 1008.28 1008.27 1008.49 1008.93 1009.59 1010.41 1011.39 1012.46 1013.57 1014.69 1015.77 1016.78 1017.68 1018.47 1019.12 1019.66 1020.06 1020.33 1020.48 1020.53 1020.49 1020.36 1020.18 1019.96 1019.72 1019.48 1019.27 1019.10 1018.98 1018.90 1018.86 1018.85 1018.83 1018.79
1014.38 1013.88 1013.25 1012.52 1011.74 1010.95 1010.20 1009.56 1009.07 1008.77 1008.68 1008.83 1009.20 1009.78 1010.53 1011.42 1012.40 1013.42 1014.45 1015.44 1016.37 1017.21 1017.96 1018.62 1019.17 1019.62 1019.97 1020.22 1020.39 1020.46 1020.45 1020.37 1020.24 1020.07 1019.87 1019.68 1019.50 1019.35 1019.23 1019.14 1019.09 1019.04 1018.98 1018.89
1014.59 1014.04 1013.37 1012.63 1011.84 1011.08 1010.39 1009.83 1009.45 1009.28 1009.34 1009.63 1010.13 1010.82 1011.65 1012.57 1013.53 1014.49 1015.42 1016.29 1017.07 1017.77 1018.37 1018.89 1019.33 1019.70 1020.00 1020.23 1020.39 1020.49 1020.52 1020.50 1020.42 1020.31 1020.16 1020.01 1019.86 1019.72 1019.60 1019.49 1019.40 1019.30 1019.18 1019.02
1014.64 1014.06 1013.39 1012.67 1011.94 1011.26 1010.67 1010.23 1009.99 1009.96 1010.15 1010.57 1011.18 1011.94 1012.81 1013.74 1014.67 1015.57 1016.41 1017.16 1017.81 1018.38 1018.86 1019.26 1019.60 1019.90 1020.14 1020.35 1020.51 1020.63 1020.70 1020.73 1020.71 1020.66 1020.57 1020.45 1020.32 1020.19 1020.05 1019.92 1019.77 1019.61 1019.41 1019.17
1014.56 1013.97 1013.33 1012.67 1012.04 1011.47 1011.02 1010.73 1010.62 1010.73 1011.04 1011.55 1012.23 1013.04 1013.92 1014.83 1015.72 1016.56 1017.32 1017.97 1018.52 1018.98 1019.35 1019.67 1019.93 1020.16 1020.37 1020.56 1020.72 1020.86 1020.97 1021.05 1021.09 1021.08 1021.04 1020.96 1020.84 1020.70 1020.54 1020.36 1020.15 1019.91 1019.63 1019.30
1014.38 1013.81 1013.24 1012.68 1012.17 1011.76 1011.46 1011.31 1011.34 1011.56 1011.96 1012.53 1013.25 1014.06 1014.92 1015.79 1016.63 1017.40 1018.08 1018.66 1019.13 1019.51 1019.81 1020.06 1020.27 1020.46 1020.64 1020.82 1020.99 1021.15 1021.30 1021.42 1021.50 1021.54 1021.53 1021.47 1021.36 1021.20 1021.00 1020.76 1020.48 1020.17 1019.80 1019.39
1014.16 1013.66 1013.18 1012.76 1012.40 1012.14 1012.00 1011.99 1012.14 1012.44 1012.90 1013.49 1014.20 1014.98 1015.79 1016.60 1017.37 1018.07 1018.69 1019.20 1019.62 1019.95 1020.21 1020.41 1020.59 1020.76 1020.92 1021.10 1021.28 1021.47 1021.65 1021.80 1021.92 1022.00 1022.01 1021.95 1021.83 1021.64 1021.39 1021.09 1020.73 1020.34 1019.90 1019.42
1013.97 1013.57 1013.23 1012.96 1012.77 1012.67 1012.68 1012.80 1013.04 1013.39 1013.87 1014.44 1015.10 1015.81 1016.55 1017.28 1017.97 1018.60 1019.15 1019.61 1019.99 1020.29 1020.52 1020.71 1020.87 1021.03 1021.20 1021.38 1021.57 1021.78 1021.98 1022.17 1022.32 1022.41 1022.43 1022.37 1022.22 1021.99 1021.68 1021.31 1020.89 1020.42 1019.92 1019.38
1013.86 1013.60 1013.42 1013.33 1013.31 1013.37 1013.52 1013.74 1014.04 1014.42 1014.88 1015.40 1015.98 1016.60 1017.24 1017.87 1018.48 1019.03 1019.52 1019.94 1020.28 1020.56 1020.79 1020.97 1021.13 1021.29 1021.46 1021.65 1021.86 1022.08 1022.31 1022.51 1022.67 1022.77 1022.79 1022.71 1022.53 1022.25 1021.89 1021.45 1020.96 1020.43 1019.87 1019.30
1013.88 1013.78 1013.78 1013.86 1014.02 1014.23 1014.49 1014.79 1015.14 1015.51 1015.93 1016.38 1016.87 1017.38 1017.91 1018.44 1018.95 1019.43 1019.86 1020.24 1020.56 1020.82 1021.04 1021.22 1021.39 1021.56 1021.73 1021.93 1022.15 1022.39 1022.62 1022.83 1023.00 1023.09 1023.09 1022.99 1022.78 1022.45 1022.04 1021.54 1021.00 1020.41 1019.82 1019.23
1014.02 1014.10 1014.28 1014.53 1014.84 1015.19 1015.55 1015.92 1016.28 1016.64 1017.00 1017.37 1017.76 1018.16 1018.58 1019.00 1019.42 1019.83 1020.21 1020.55 1020.85 1021.11 1021.32 1021.51 1021.68 1021.86 1022.04 1022.24 1022.47 1022.71 1022.94 1023.15 1023.31 1023.40 1023.39 1023.26 1023.01 1022.65 1022.19 1021.65 1021.06 1020.45 1019.83 1019.23
1014.27 1014.52 1014.86 1015.27 1015.72 1016.18 1016.62 1017.03 1017.39 1017.73 1018.04 1018.33 1018.62 1018.93 1019.25 1019.58 1019.93 1020.27 1020.61 1020.92 1021.21 1021.45 1021.67 1021.86 1022.04 1022.22 1022.41 1022.61 1022.83 1023.07 1023.30 1023.50 1023.65 1023.72 1023.69 1023.55 1023.28 1022.89 1022.40 1021.83 1021.22 1020.59 1019.97 1019.37
1014.59 1014.98 1015.46 1016.01 1016.57 1017.11 1017.60 1018.04 1018.41 1018.72 1018.97 1019.20 1019.42 1019.65 1019.89 1020.16 1020.45 1020.75 1021.05 1021.35 1021.62 1021.87 1022.09 1022.29 1022.47 1022.65 1022.84 1023.04 1023.25 1023.48 1023.69 1023.89 1024.02 1024.09 1024.05 1023.89 1023.61 1023.21 1022.72 1022.15 1021.53 1020.91 1020.29 1019.72
1014.92 1015.43 1016.02 1016.66 1017.30 1017.90 1018.44 1018.89 1019.25 1019.53 1019.76 1019.94 1020.11 1020.28 1020.48 1020.70 1020.96 1021.24 1021.53 1021.81 1022.09 1022.34 1022.57 1022.77 1022.96 1023.14 1023.33 1023.52 1023.72 1023.93 1024.13 1024.31 1024.44 1024.49 1024.45 1024.30 1024.03 1023.65 1023.17 1022.62 1022.02 1021.42 1020.83 1020.28
1015.23 1015.82 1016.49 1017.20 1017.88 1018.52 1019.07 1019.52 1019.88 1020.15 1020.35 1020.51 1020.65 1020.81 1020.98 1021.19 1021.44 1021.71 1022.00 1022.29 1022.58 1022.84 1023.08 1023.29 1023.48 1023.66 1023.84 1024.02 1024.21 1024.40 1024.59 1024.75 1024.87 1024.93 1024.89 1024.76 1024.52 1024.17 1023.74 1023.23 1022.68 1022.12 1021.57 1021.05
1015.51 1016.16 1016.87 1017.60 1018.30 1018.94 1019.49 1019.94 1020.29 1020.56 1020.75 1020.91 1021.05 1021.21 1021.39 1021.60 1021.86 1022.15 1022.45 1022.76 1023.06 1023.33 1023.58 1023.80 1024.00 1024.17 1024.34 1024.51 1024.69 1024.86 1025.04 1025.19 1025.31 1025.37 1025.35 1025.25 1025.05 1024.76 1024.39 1023.95 1023.47 1022.97 1022.47 1021.99
1015.78 1016.45 1017.17 1017.89 1018.59 1019.21 1019.75 1020.19 1020.53 1020.80 1021.00 1021.17 1021.33 1021.50 1021.71 1021.95 1022.22 1022.53 1022.86 1023.18 1023.49 1023.78 1024.04 1024.27 1024.47 1024.64 1024.80 1024.96 1025.12 1025.29 1025.44 1025.59 1025.71 1025.78 1025.80 1025.74 1025.60 1025.37 1025.08 1024.72 1024.32 1023.89 1023.45 1023.02
1016.06 1016.73 1017.43 1018.13 1018.80 1019.39 1019.90 1020.33 1020.66 1020.93 1021.15 1021.34 1021.53 1021.73 1021.97 1022.24 1022.54 1022.87 1023.22 1023.56 1023.89 1024.18 1024.45 1024.68 1024.87 1025.05 1025.20 1025.35 1025.50 1025.66 1025.81 1025.95 1026.07 1026.17 1026.21 1026.19 1026.11 1025.96 1025.75 1025.47 1025.16 1024.80 1024.43 1024.05
1016.40 1017.04 1017.71 1018.37 1018.99 1019.54 1020.02 1020.42 1020.76 1021.03 1021.27 1021.48 1021.70 1021.94 1022.21 1022.51 1022.84 1023.19 1023.55 1023.90 1024.23 1024.53 1024.80 1025.03 1025.23 1025.40 1025.55 1025.70 1025.84 1025.99 1026.13 1026.28 1026.41 1026.52 1026.59 1026.62 1026.59 1026.51 1026.37 1026.18 1025.94 1025.66 1025.35 1025.01
1016.80 1017.42 1018.04 1018.64 1019.21 1019.72 1020.16 1020.54 1020.86 1021.14 1021.40 1021.64 1021.90 1022.17 1022.46 1022.79 1023.14 1023.50 1023.86 1024.21 1024.55 1024.85 1025.11 1025.34 1025.54 1025.71 1025.87 1026.01 1026.16 1026.30 1026.45 1026.60 1026.73 1026.86 1026.95 1027.02 1027.04 1027.01 1026.93 1026.81 1026.64 1026.42 1026.17 1025.88
1017.28 1017.85 1018.42 1018.97 1019.47 1019.93 1020.34 1020.70 1021.01 1021.30 1021.57 1021.84 1022.12 1022.43 1022.75 1023.09 1023.45 1023.82 1024.18 1024.53 1024.85 1025.15 1025.41 1025.64 1025.84 1026.02 1026.18 1026.33 1026.49 1026.64 1026.79 1026.94 1027.09 1027.22 1027.34 1027.42 1027.47 1027.48 1027.45 1027.37 1027.25 1027.09 1026.88 1026.63
1017.80 1018.33 1018.84 1019.32 1019.77 1020.19 1020.56 1020.89 1021.21 1021.50 1021.79 1022.08 1022.39 1022.71 1023.05 1023.41 1023.77 1024.14 1024.50 1024.84 1025.16 1025.45 1025.71 1025.95 1026.16 1026.35 1026.53 1026.69 1026.86 1027.03 1027.19 1027.35 1027.50 1027.64 1027.76 1027.85 1027.92 1027.94 1027.93 1027.89 1027.80 1027.67 1027.49 1027.28
1018.32 1018.79 1019.24 1019.68 1020.08 1020.45 1020.79 1021.11 1021.42 1021.72 1022.02 1022.33 1022.66 1023.00 1023.36 1023.72 1024.09 1024.46 1024.81 1025.15 1025.46 1025.76 1026.02 1026.27 1026.49 1026.70 1026.91 1027.10 1027.29 1027.47 1027.65 1027.82 1027.98 1028.12 1028.24 1028.33 1028.39 1028.42 1028.41 1028.37 1028.29 1028.18 1028.03 1027.84
1018.75 1019.18 1019.59 1019.98 1020.34 1020.67 1020.99 1021.30 1021.60 1021.91 1022.23 1022.56 1022.90 1023.26 1023.62 1024.00 1024.37 1024.73 1025.09 1025.42 1025.74 1026.04 1026.32 1026.59 1026.84 1027.08 1027.31 1027.53 1027.75 1027.96 1028.16 1028.34 1028.50 1028.64 1028.75 1028.83 1028.88 1028.90 1028.89 1028.84 1028.77 1028.66 1028.53 1028.36
Thickness
5622 5630 5635 5640 5644 5648 5645 5643 5639 5650 5656 5669 5672 5672 5671 5665 5657 5647 5637 5626 5615 5602 5590 5580 5569 5560 5552 5546 5542 5537 5532 5528 5523 5518 5512 5506 5501 5495 5489 5483 5478 5472 5466 5460
5610 5621 5623 5627 5636 5640 5642 5645 5645 5650 5654 5668 5666 5662 5657 5654 5649 5641 5631 5619 5607 5594 5581 5571 5561 5550 5542 5537 5532 5527 5522 5518 5513 5507 5501 5496 5491 5486 5480 5474 5468 5462 5456 5449
5586 5601 5606 5606 5627 5635 5639 5646 5645 5642 5653 5653 5650 5652 5652 5647 5642 5635 5623 5611 5598 5585 5573 5562 5551 5542 5534 5528 5523 5517 5512 5507 5502 5497 5492 5488 5483 5477 5472 5466 5459 5452 5444 5437
5569 5583 5581 5606 5623 5627 5628 5634 5637 5639 5642 5641 5642 5637 5634 5631 5626 5618 5608 5596 5583 5571 5560 5549 5541 5533 5526 5520 5514 5509 5503 5498 5493 5489 5484 5480 5475 5469 5463 5456 5448 5440 5432 5424
5556 5563 5576 5597 5609 5609 5611 5616 5626 5627 5625 5620 5618 5615 5607 5609 5606 5598 5588 5578 5567 5556 5547 5537 5530 5523 5517 5511 5505 5500 5494 5489 5485 5480 5476 5471 5466 5459 5451 5443 5434 5426 5418 5411
5547 5554 5563 5580 5591 5594 5596 5597 5610 5611 5608 5604 5606 5599 5589 5586 5583 5574 5566 5558 5550 5541 5533 5527 5520 5514 5508 5503 5497 5491 5486 5481 5477 5472 5467 5460 5452 5444 5436 5428 5420 5413 5406 5399
5536 5538 5552 5567 5572 5581 5576 5580 5584 5590 5590 5589 5585 5583 5572 5566 5561 5554 5547 5541 5534 5527 5522 5516 5511 5505 5500 5494 5488 5482 5477 5473 5468 5462 5455 5447 5439 5430 5422 5415 5407 5400 5394 5389
5524 5526 5538 5554 5557 5558 5559 5558 5563 5567 5568 5565 5563 5559 5554 5548 5542 5536 5530 5525 5519 5514 5509 5505 5502 5498 5493 5486 5480 5475 5469 5463 5457 5450 5444 5435 5426 5418 5410 5402 5396 5390 5385 5382
5523 5527 5536 5539 5541 5547 5548 5548 5549 5550 5552 5553 5550 5544 5539 5533 5527 5522 5517 5513 5509 5505 5501 5498 5495 5491 5485 5478 5473 5467 5460 5452 5445 5439 5430 5422 5414 5406 5399 5392 5387 5383 5379 5376
5521 5529 5531 5534 5537 5540 5542 5542 5541 5541 5542 5542 5537 5531 5526 5520 5514 5510 5506 5503 5500 5498 5496 5492 5488 5483 5478 5472 5466 5459 5451 5442 5435 5427 5419 5411 5404 5397 5390 5385 5380 5377 5374 5370
5521 5527 5529 5529 5530 5532 5533 5533 5532 5530 5529 5528 5525 5519 5515 5510 5504 5501 5498 5496 5495 5493 5490 5486 5481 5476 5472 5466 5460 5451 5443 5434 5425 5416 5408 5401 5395 5389 5384 5378 5374 5370 5367 5364
5521 5522 5520 5520 5522 5524 5524 5522 5521 5520 5517 5515 5514 5509 5504 5500 5496 5494 5492 5491 5489 5487 5483 5479 5474 5469 5464 5459 5453 5445 5435 5425 5416 5408 5400 5393 5387 5383 5378 5373 5370 5366 5362 5358
5516 5517 5516 5514 5513 5514 5513 5512 5511 5509 5507 5504 5502 5500 5496 5492 5489 5488 5487 5487 5484 5481 5476 5472 5468 5463 5457 5452 5445 5436 5426 5416 5407 5399 5392 5385 5379 5374 5370 5368 5365 5362 5359 5357
5511 5512 5508 5507 5505 5504 5504 5502 5501 5499 5497 5496 5494 5492 5490 5487 5485 5484 5483 5481 5478 5475 5471 5467 5463 5456 5450 5445 5437 5427 5417 5408 5399 5390 5383 5377 5372 5368 5364 5361 5359 5358 5356 5354
5506 5506 5501 5499 5498 5496 5496 5496 5494 5490 5489 5487 5487 5486 5484 5482 5480 5479 5478 5476 5473 5470 5466 5462 5457 5450 5444 5438 5429 5420 5410 5400 5391 5383 5376 5370 5366 5362 5359 5357 5354 5353 5352 5352
5500 5498 5496 5495 5493 5491 5490 5490 5488 5485 5484 5483 5482 5480 5479 5478 5476 5474 5472 5471 5468 5464 5461 5457 5452 5445 5439 5432 5423 5412 5403 5394 5385 5377 5370 5364 5360 5357 5354 5352 5351 5349 5348 5347
5498 5493 5492 5490 5489 5486 5486 5485 5484 5482 5481 5479 5478 5477 5476 5474 5471 5468 5466 5464 5463 5460 5458 5454 5448 5442 5434 5426 5416 5406 5396 5387 5379 5371 5365 5359 5355 5352 5350 5348 5347 5345 5344 5343
5501 5497 5494 5492 5489 5485 5483 5482 5481 5479 5478 5476 5476 5474 5472 5470 5466 5463 5462 5461 5460 5458 5454 5451 5446 5439 5430 5421 5411 5401 5391 5382 5374 5367 5361 5356 5352 5349 5346 5344 5343 5341 5341 5341
5497 5494 5490 5488 5486 5483 5480 5478 5476 5475 5475 5474 5473 5471 5469 5466 5464 5462 5462 5461 5460 5456 5451 5448 5443 5435 5426 5416 5407 5397 5388 5379 5371 5364 5359 5354 5350 5347 5344 5342 5339 5338 5337 5337
5493 5490 5487 5484 5482 5479 5477 5474 5473 5472 5471 5471 5470 5468 5466 5464 5463 5462 5461 5458 5456 5454 5451 5446 5440 5432 5423 5414 5405 5395 5386 5377 5370 5364 5358 5353 5349 5346 5342 5340 5338 5336 5335 5335
5489 5487 5484 5481 5477 5475 5474 5472 5471 5469 5469 5470 5469 5467 5465 5463 5463 5462 5461 5459 5456 5453 5450 5445 5438 5429 5421 5412 5403 5394 5385 5378 5371 5364 5358 5353 5349 5345 5342 5339 5336 5334 5333 5332
5485 5483 5480 5477 5474 5471 5469 5469 5469 5468 5467 5467 5467 5466 5464 5463 5462 5461 5460 5458 5456 5453 5449 5443 5437 5429 5421 5412 5403 5395 5387 5379 5372 5365 5359 5354 5349 5345 5342 5338 5336 5334 5332 5331
5481 5479 5477 5474 5471 5468 5467 5467 5467 5466 5465 5466 5466 5465 5465 5463 5463 5462 5460 5458 5456 5453 5449 5443 5437 5430 5422 5413 5405 5397 5389 5382 5375 5368 5362 5356 5351 5346 5343 5339 5336 5334 5332 5330
5476 5475 5473 5470 5468 5466 5464 5464 5464 5464 5464 5465 5465 5466 5465 5463 5462 5462 5462 5460 5457 5454 5449 5443 5437 5430 5423 5415 5407 5400 5393 5385 5378 5372 5365 5359 5354 5349 5345 5341 5338 5335 5333 5332
5472 5471 5468 5467 5466 5465 5464 5462 5461 5461 5462 5462 5464 5465 5466 5467 5466 5463 5462 5460 5457 5453 5448 5443 5438 5432 5425 5418 5411 5404 5397 5390 5383 5377 5370 5364 5358 5353 5349 5345 5341 5338 5336 5335
5467 5467 5466 5467 5466 5464 5462 5461 5460 5459 5460 5461 5462 5463 5465 5466 5466 5464 5462 5460 5457 5453 5449 5444 5439 5434 5428 5422 5416 5409 5402 5395 5389 5382 5376 5370 5364 5359 5354 5350 5346 5343 5340 5338
5461 5461 5460 5460 5460 5462 5462 5462 5461 5460 5461 5463 5463 5463 5464 5465 5465 5464 5462 5460 5457 5453 5450 5446 5441 5437 5432 5426 5421 5414 5408 5402 5395 5389 5383 5377 5371 5366 5361 5357 5353 5349 5347 5344